Погода в Гримсее

Исландия     66°32′48″N   18°00′39″W
темп.,
°C
ветер,
м/с
пор.,
м/с
влажн.,
%
обл.,
%
осадки,
мм/ч
давл.,
гПа
погр.,
м
8 декабря, ср
ср800:00+2ююв6566100 0.1 994397
03:00+1юв88785 0.0 997339
06:00+1юв66621 0.0 998275
09:00+2юв56594 0.0 999228
12:00+2юв66621 0.0 1000302
15:00+2юв66620 0.0 999220
18:00+2юв66590 0.0 999241
21:00+1юв67550 0.0 998273
9 декабря, чт
чт900:000вюв8956100 0.0 996305
03:00+1вюв81157100 0.0 993468
06:00+1вюв81097100 0.1 990517
09:00+1вюв91383100 0.1 987438
12:00+2вюв111684100 0.1 985675
15:00+3вюв141885100 0.0 984671
18:00+3в121691100 0.0 984895
21:00+3в121590100 1.1 985815
10 декабря, пт
пт1000:00+3всв111391100 1.3 9861023
03:00+3св111191100 0.1 988756
06:00+2ссв101090100 0.2 989542
09:00+2с779396 0.1 991455
12:00+2ссз229079 0.1 993254
15:00+3зюз238576 0.0 995391
18:00+3зюз0183100 0.0 99699
21:00+3вюв458377 0.0 997299
11 декабря, сб
сб1100:00+3в81088100 0.0 995362
03:00+3вюв91392100 0.0 993585
06:00+3в121492100 0.0 990567
09:00+3в131686100 0.0 987432
12:00+3вюв131884100 0.0 984611
15:00+3вюв162192100 0.0 981934
18:00+3вюв17209492 0.0 979736
21:00+3вюв1217915 0.0 978528
12 декабря, вс
вс1200:00+4вюв121884100 0.0 978552
03:00+4вюв11148186 0.0 979281
06:00+4вюв9138441 0.0 979187
09:00+3юв9128488 0.1 981265
12:00+3юв8118517 0.3 982203
15:00+4ю91183100 0.0 984258
18:00+4ююв68775 0.1 986130
21:00+3юв10128280 0.0 987240